Location: ?????????
(55.6553°N, 38.9075°E)
Time: 09:52:56
(UTC+00:00)

Cosmos 1980 - Pass Details

Date: 18 October 2019
Orbit: 840 x 846 km, 71.0° (Epoch: 17 November)

Event Time Altitude Azimuth Distance (km) Brightness Sun altitude
Rises 02:02:42 0° 198° (SSW) 3,387 6.6 -17.2°
Reaches altitude 10° 02:05:10 10° 195° (SSW) 2,456 5.9 -16.9°
Maximum altitude 02:10:42 60° 117° (ESE) 959 4.2 -16.1°
Drops below altitude 10° 02:16:16 10° 38° (NE) 2,470 6.8 -15.3°
Sets 02:18:44 0° 36° (NE) 3,409 7.5 -15.0°
